Regional Weather Roundup
Issued by NWS

Home | Current Version | Previous Version | Graphics & Text | Print | Product List | Glossary On
Versions: 1 2 3 4 5 6 7 8 9 10 11 12 13 14 15 16 17 18 19 20 21 22 23 24 25 26 27 28 29 30 31 32 33 34 35 36 37 38 39 40 41 42 43 44 45 46 47 48 49 50
000
ASUS43 KLMK 080602
RWRKY
KENTUCKY REGIONAL WEATHER ROUNDUP
NATIONAL WEATHER SERVICE LOUISVILLE KY
200 AM EDT WED JUL 08 2015

NOTE "FAIR" INDICATES FEW OR NO CLOUDS BELOW 12,000 FEET
WITH NO SIGNIFICANT WEATHER AND/OR OBSTRUCTIONS TO VISIBILITY.

KYZ001>023-026-027-061>063-070>075-080700-
WESTERN AND SOUTH CENTRAL KENTUCKY

CITY           SKY/WX    TMP DP  RH WIND       PRES   REMARKS
PADUCAH        CLOUDY    72  70  93 S3        30.03S
HENDERSON      CLOUDY    70  66  88 CALM      30.03R
OWENSBORO      LGT RAIN  74  73  96 SW8       30.04S
HOPKINSVILLE   CLOUDY    71  70  95 S5        30.06F
BOWLING GREEN  CLOUDY    73  69  87 SW6       30.07F
GLASGOW        NOT AVBL
$$

KYZ024-025-028>034-038-045-046-053-080700-
NORTH CENTRAL KENTUCKY

CITY           SKY/WX    TMP DP  RH WIND       PRES   REMARKS
LOUISVILLE/SDF CLOUDY    73  69  87 SW10      30.03R
LOUISVILLE/LOU CLOUDY    73  70  90 SW7       30.04R
FORT KNOX      CLOUDY    70  70 100 S9        30.03F
$$

KYZ035>037-039>044-047>052-055>060-089>105-080700-
NORTHEAST KENTUCKY

CITY           SKY/WX    TMP DP  RH WIND       PRES   REMARKS
LEXINGTON      CLOUDY    69  67  93 SW10      30.06S
COVINGTON      CLOUDY    67  66  97 N6        30.04S
FRANKFORT      CLOUDY    71  68  90 SW10      30.04S
$$

KYZ054-064>069-076>088-106>120-080700-
SOUTHEAST KENTUCKY

CITY           SKY/WX    TMP DP  RH WIND       PRES   REMARKS
JACKSON        CLOUDY    70  68  93 CALM      30.10S
LONDON         RAIN      71  66  84 SW12      30.14R
SOMERSET       NOT AVBL
MIDDLESBORO    CLOUDY    70  70  99 CALM      30.14F
MONTICELLO     CLOUDY    70  70 100 CALM      30.15F FOG
$$



USA.gov is the U.S. government's official web portal to all federal, state and local government web resources and services.